Home > Weather > Mendrisio > Past weeks

Flag for Switzerland Past Weather in Mendrisio, Ticino, Switzerland — Yesterday and Last 2 Weeks

Now
66 °F

Mild.


Feels Like: 66 °F
Forecast: 56 / 68 °F
Wind: 5 mph from East

Location: Stabio

Current Time: Jul 2, 2016 at 9:33:50 AM

Latest Report: Jul 2, 2016 at 8:00 AM


Visibility: N/A

Pressure: 30.02 "Hg

Humidity: 89%

Dew Point: 63 °F

Location of MendrisioLocation

Past Weather in Mendrisio — Graph

°F

Mendrisio Temperature Yesterday

Maximum temperature yesterday: 83 °F (at 4:00 PM)
Minimum temperature yesterday: 61 °F (at 6:00 AM)
Average temperature yesterday: 72 °F

High & Low Weather Summary for the Past Weeks

 TemperatureHumidityPressure
High87 °F (Jun 23, 4:00 PM)100% (Jul 1, 2:00 AM)30.24 "Hg (Jul 1, 2:00 AM)
Low51 °F (Jun 18, 6:00 AM)25% (Jun 27, 7:00 PM)29.76 "Hg (Jun 17, 8:00 AM)
Average69 °F71%30.02 "Hg
* Reported Jun 17 8:00 AM — Jul 2 8:00 AM, Mendrisio, Weather by CustomWeather, © 2016

Note: Actual official high and low records may vary slightly from our data, if they occured in-between our weather recording intervals... More about our weather records

Advertising

Mendrisio Weather History for the Previous 24 Hours

Scroll right to see more
 ConditionsComfort  
Time TempWeatherWind HumidityBarometerVisibility
8:00 AM
Sat, Jul 2
66 °FMild.5 mph89%30.02 "HgN/A
7:00 AM67 °FMild.2 mph95%30.02 "HgN/A
6:00 AM65 °FMild.1 mph98%30.01 "HgN/A
5:00 AM67 °FMild.3 mph97%30.01 "HgN/A
4:00 AM68 °FMild.3 mph96%30.01 "HgN/A
3:00 AM66 °FMild.No wind94%30.01 "HgN/A
2:00 AM66 °FMild.1 mph95%30.03 "HgN/A
1:00 AM67 °FMild.1 mph93%30.04 "HgN/A
12:00 AM67 °FMild.1 mph91%30.03 "HgN/A
11:00 PM
Fri, Jul 1
68 °FMild.1 mph87%30.03 "HgN/A
10:00 PM69 °FMild.1 mph82%30.02 "HgN/A
9:00 PM72 °FMild.1 mph78%29.99 "HgN/A
8:00 PM78 °FWarm.3 mph65%29.97 "HgN/A
7:00 PM80 °FWarm.5 mph60%29.97 "HgN/A
6:00 PM82 °FWarm.5 mph55%29.97 "HgN/A
5:00 PM82 °FWarm.6 mph56%29.98 "HgN/A
4:00 PM83 °FWarm.5 mph54%29.98 "HgN/A
3:00 PM80 °FWarm.2 mph55%30.00 "HgN/A
2:00 PM80 °FWarm.2 mph59%30.01 "HgN/A
1:00 PM80 °FWarm.5 mph64%30.02 "HgN/A
12:00 PM78 °FWarm.2 mph67%30.04 "HgN/A
11:00 AM74 °FMild.3 mph72%30.05 "HgN/A
10:00 AM72 °FMild.3 mph75%30.06 "HgN/A
9:00 AM70 °FMild.3 mph77%30.06 "HgN/A
Weather by CustomWeather, © 2016

See weather overviewHow to use our weather pages